TimeEST,TemperatureF,Dew PointF,Humidity,Sea Level PressureIn,VisibilityMPH,Wind Direction,Wind SpeedMPH,Gust SpeedMPH,PrecipitationIn,Events,Conditions,WindDirDegrees,DateUTC
12:53 AM,46.0,42.1,86,30.17,9.0,Calm,Calm,-,N/A,,Clear,0,2012-11-22 05:53:00
1:53 AM,44.1,41.0,89,30.17,8.0,Calm,Calm,-,N/A,,Clear,0,2012-11-22 06:53:00
2:53 AM,43.0,41.0,93,30.17,9.0,NNE,3.5,-,N/A,,Clear,20,2012-11-22 07:53:00
3:53 AM,43.0,41.0,93,30.19,8.0,Calm,Calm,-,N/A,,Clear,0,2012-11-22 08:53:00
4:53 AM,43.0,39.9,89,30.20,8.0,Calm,Calm,-,N/A,,Clear,0,2012-11-22 09:53:00
5:53 AM,39.9,37.9,93,30.22,8.0,Calm,Calm,-,N/A,,Clear,0,2012-11-22 10:53:00
6:53 AM,39.9,37.9,93,30.23,6.0,Calm,Calm,-,N/A,,Clear,0,2012-11-22 11:53:00
7:53 AM,41.0,39.9,96,30.26,6.0,Calm,Calm,-,N/A,,Clear,0,2012-11-22 12:53:00
8:53 AM,50.0,41.0,71,30.27,8.0,Calm,Calm,-,N/A,,Clear,0,2012-11-22 13:53:00
9:53 AM,55.0,37.0,51,30.28,10.0,Variable,3.5,-,N/A,,Clear,0,2012-11-22 14:53:00
10:53 AM,59.0,34.0,39,30.28,10.0,Calm,Calm,-,N/A,,Clear,0,2012-11-22 15:53:00
11:53 AM,62.1,30.9,31,30.26,10.0,SSW,4.6,-,N/A,,Clear,200,2012-11-22 16:53:00
12:53 PM,64.0,33.1,31,30.22,10.0,Variable,3.5,-,N/A,,Clear,0,2012-11-22 17:53:00
1:53 PM,64.9,34.0,32,30.20,10.0,Calm,Calm,-,N/A,,Clear,0,2012-11-22 18:53:00
2:53 PM,66.0,33.1,29,30.18,10.0,Calm,Calm,-,N/A,,Clear,0,2012-11-22 19:53:00
3:53 PM,66.0,35.1,32,30.17,10.0,WNW,3.5,-,N/A,,Clear,300,2012-11-22 20:53:00
4:53 PM,64.0,35.1,34,30.18,10.0,SW,3.5,-,N/A,,Clear,220,2012-11-22 21:53:00
5:53 PM,54.0,39.0,57,30.20,10.0,Calm,Calm,-,N/A,,Clear,0,2012-11-22 22:53:00
6:53 PM,51.1,37.9,61,30.21,10.0,Calm,Calm,-,N/A,,Clear,0,2012-11-22 23:53:00
7:53 PM,48.9,39.0,69,30.22,10.0,Calm,Calm,-,N/A,,Clear,0,2012-11-23 00:53:00
8:53 PM,46.9,39.0,74,30.22,10.0,Calm,Calm,-,N/A,,Clear,0,2012-11-23 01:53:00
9:53 PM,45.0,39.0,80,30.21,10.0,Calm,Calm,-,N/A,,Clear,0,2012-11-23 02:53:00
10:53 PM,44.1,39.0,82,30.20,9.0,Calm,Calm,-,N/A,,Clear,0,2012-11-23 03:53:00
11:53 PM,43.0,39.0,86,30.20,8.0,Calm,Calm,-,N/A,,Clear,0,2012-11-23 04:53:00